Find Local Weather

World > North America > United States > Wisconsin

Elton, Wisconsin Regional Weather

Lat: 45.15N, Lon: 88.84W
Wx Zone: WIZ019
Feedback
Expires:201805231900;;415196
ASUS43 KMKX 231821
RWRWI 

WISCONSIN REGIONAL WEATHER ROUNDUP
NATIONAL WEATHER SERVICE MILWAUKEE/SULLIVAN WI
100 PM CDT WED MAY 23 2018

NOTE: "FAIR" INDICATES FEW OR NO CLOUDS BELOW 12,000 FEET WITH NO
SIGNIFICANT WEATHER AND/OR OBSTRUCTIONS TO VISIBILITY.


WIZ011>013-019>022-031-037>040-048>050-231900-
NORTHEAST WISCONSIN
  
CITY           SKY/WX    TMP DP  RH WIND       PRES   REMARKS
ANTIGO         PTSUNNY   77  56  48 CALM      30.17F                  
6HR MIN TEMP:  53; 6HR MAX TEMP:  77;                                

SHAWANO        FAIR      82  53  37 W8        30.15F HX  81           
6HR MIN TEMP:  60; 6HR MAX TEMP:  81;                                

OCONTO         FAIR      76  52  42 SE7       30.15F                  
STURGEON BAY   FAIR      75  56  51 VRB5      30.17F                  
6HR MIN TEMP:  57; 6HR MAX TEMP:  75;                                

GREEN BAY      FAIR      78  60  53 S9        30.16F                  
6HR MIN TEMP:  60; 6HR MAX TEMP:  79;                                

MANITOWOC      FAIR      78  57  48 SW8       30.18S                  
6HR MIN TEMP:  62; 6HR MAX TEMP:  78;                                

APPLETON       PTSUNNY   75  52  43 VRB5      30.17F                  
CLINTONVILLE   FAIR      80  51  36 S6        30.16S                  
6HR MIN TEMP:  60; 6HR MAX TEMP:  79;                                

OSHKOSH        FAIR      75  58  55 S8        30.18F                  
6HR MIN TEMP:  60; 6HR MAX TEMP:  76;                                

$$
 

SKY/WX - Weather  TMP - Temperature  DP - Dewpoint  RH - Relative Humidity
WIND - Wind Direction/Speed PRES - Barometric Pressure